ROMMA est une association bénévole à but non lucratif. Votre soutien est indispensable : ADHERER à ROMMA ou FAIRE un DON

Crêts du Salève - (74, Haute-Savoie)

Salève (1270 m)   Longitude: 6° 10' 28'' E   Latitude: 46° 7' 42'' N Station romma n°73
 

Détail journalier du     <<     >>

Température Humidité Vent Dir Rafale Dir. rafale Ensol.
Heure (°C) (%) (km/h) (km/h) (min)
01:00 -1.37937N45N0
02:00 -2.99242N52NNO0
03:00 -3.49644N52N0
04:00 -3.59643N55N0
05:00 -3.39338N50N0
06:00 -3.29237N47N0
07:00 -3.79533N39N0
08:00 -3.49234N47N0
09:00 -3.89639N52N0
10:00 -3.49828N42N0
11:00 -2.99826N35N40
12:00 -2.99728N39N60
13:00 -2.09137N48N70
14:00 -1.99135N44N50
15:00 -1.99039NNO47NNO60
16:00 -1.48739N52N30
17:00 -1.89142N52N0
18:00 -1.99638N45NNO0
19:00 -1.59427N39N0
20:00 -2.19729NNO37NNO0
21:00 -2.39829N32NNO0
22:00 -2.29924N34N0
23:00 -2.79825N35N0
minuit -2.09616NNE23NNO0

Graphique du 05-01-2020

 

Serveur OMMA